Regional Weather Roundup
Issued by NWS Bismarck, ND

Home | Current Version | Previous Version | Text Only | Print | Product List | Glossary On
Versions: 1 2 3 4 5 6 7 8 9 10 11 12 13 14 15 16 17 18 19 20 21 22 23 24 25 26 27 28 29 30 31 32 33 34 35 36 37 38 39 40 41 42 43 44 45 46 47 48 49 50
000
ASUS43 KBIS 220059
RWRBIS

NWR BROADCAST TEXT
NATIONAL WEATHER SERVICE BISMARCK ND
800 PM CDT TUE OCT 21 2014

NOTE: "FAIR" INDICATES FEW OR NO CLOUDS BELOW 12,000 FEET WITH NO
SIGNIFICANT WEATHER AND/OR OBSTRUCTIONS TO VISIBILITY.


CITY           SKY/WX    TMP DP  RH WIND       PRES   REMARKS
WILLISTON      CLEAR     53  42  66 N3        29.57S HAZE
MINOT          CLEAR     60  44  55 E6        29.60F
MINOT AFB      NOT AVBL
BISMARCK       CLEAR     72  44  36 SE18      29.67R
DICKINSON      NOT AVBL
GARRISON         N/A     66  48  52 SE6       29.62S
HETTINGER ARPT CLEAR     65  43  44 SE9       29.66R
JAMESTOWN      NOT AVBL
CARRINGTON     FAIR      63  46  55 SE23      29.75R HAZE
OAKES            N/A     64  46  52 SE20      29.84R
$$

CITY           SKY/WX    TMP DP  RH WIND       PRES   REMARKS
GRAND FORKS    CLEAR     58  41  53 SE25G32   29.85R
GRAND FORKS AF NOT AVBL
DEVILS LAKE    CLEAR     61  43  51 SE23G30   29.72F
FARGO          CLEAR     59  41  51 SE24G38   29.90S
CAVALIER       FAIR      57  41  54 S15G24    29.81S
GRAFTON        FAIR      57  41  54 SE22      29.83S
GWINNER        CLEAR     61  43  51 SE22G28   29.88S
$$

CITY           SKY/WX    TMP DP  RH WIND       PRES   REMARKS
ABERDEEN       CLEAR     67  44  43 SE16      29.84R
MOBRIDGE       PTCLDY    72  41  32 SE20      29.70R
RAPID CITY     PTCLDY    68  46  45 S12       29.74R
GLASGOW        CLOUDY    62  42  47 W17       29.64R
SIDNEY         CLEAR     55  43  62 CALM      29.59S
WOLF POINT     PTCLDY    59  45  59 NW5       29.58R
GLENDIVE       CLEAR     57  41  54 SW5       29.62R
MILES CITY     LGT RAIN  69  40  34 NW9       29.64R
BAKER          CLEAR     60  39  45 N5        29.64R
$$

CITY           SKY/WX    TMP DP  RH WIND       PRES   REMARKS
BILLINGS       MOCLDY    61  18  18 W25G37    29.77R
GREAT FALLS    LGT RAIN  45  42  89 S10       29.84R
$$




USA.gov is the U.S. government's official web portal to all federal, state and local government web resources and services.